Wind_Speed
2 3 3 3 4 3 3 3 3 4 5 6 7 7 7 7 8 8 8 8 8 8 8 7 7 6 6 6 6 6 6 6 6 6 6 6 6 6 6 6 6 6 6
3 3 4 3 3 4 3 3 3 4 5 5 6 6 6 7 7 7 7 7 7 7 7 7 7 6 6 5 5 5 5 5 6 6 5 5 6 6 5 5 5 5 6
5 4 5 4 4 4 4 3 4 4 4 5 5 6 6 6 6 6 6 6 6 6 6 6 6 6 5 5 5 4 4 5 5 5 5 5 5 5 5 5 5 5 5
6 6 6 5 5 5 5 4 5 5 5 5 5 5 5 6 6 6 6 6 6 6 5 5 5 5 5 4 4 4 4 4 4 4 4 4 4 4 4 5 5 5 5
7 7 7 6 6 6 6 5 5 5 5 5 5 5 5 5 5 5 5 5 4 5 4 4 4 4 4 3 3 3 3 3 3 3 3 3 3 3 4 4 4 4 4
8 8 7 7 7 7 6 6 6 6 6 6 5 5 5 4 4 4 3 3 3 3 3 3 3 3 3 3 2 2 3 3 2 2 2 2 2 3 3 3 3 3 3
8 8 8 8 8 8 7 7 7 7 7 7 6 5 5 4 3 3 2 2 2 2 2 2 2 1 1 1 1 1 1 1 1 1 1 1 1 2 2 2 2 2 2
9 9 9 9 9 9 8 8 8 8 8 7 7 6 5 4 4 3 2 1 1 1 1 2 1 1 0 0 1 1 1 0 1 1 1 1 0 1 1 1 1 1 1
9 10 10 10 10 10 10 9 9 9 9 8 8 7 6 5 4 3 2 1 1 0 1 1 1 1 1 1 1 1 1 1 0 2 2 2 2 2 2 2 1 1 1
10 10 11 11 11 11 11 11 10 10 10 9 8 8 7 6 5 4 3 2 2 2 2 2 2 1 1 2 2 2 2 2 1 2 3 3 2 2 2 2 3 3 3
11 11 11 12 12 12 12 12 12 11 11 10 9 8 8 7 6 5 4 3 3 3 3 2 2 2 2 2 3 3 3 3 2 2 3 3 4 3 3 3 4 4 4
12 12 12 13 13 13 13 13 13 13 12 12 11 10 9 8 7 6 5 4 4 4 4 3 3 2 2 3 3 3 3 3 3 3 4 4 4 4 4 4 5 5 5
14 14 14 14 15 14 13 14 14 14 13 13 12 11 10 9 8 7 6 5 5 5 4 3 3 3 3 3 4 4 3 4 3 4 4 4 5 6 6 6 6 7 7
15 15 15 15 15 14 14 15 14 15 14 13 12 12 11 9 8 7 6 5 5 5 4 3 3 3 4 4 5 5 5 4 5 4 5 5 5 6 6 7 7 8 8
15 16 16 15 16 15 14 15 14 14 13 12 12 12 11 10 8 8 6 5 5 5 4 4 4 4 5 5 5 5 5 5 5 4 5 5 5 6 6 7 8 9 9
16 15 15 16 16 16 15 15 15 15 14 13 12 12 11 10 9 8 6 5 5 5 5 4 4 4 4 4 4 5 5 5 5 5 5 4 5 5 6 7 8 9 10
16 15 16 16 16 17 17 16 16 16 15 13 12 12 11 10 9 8 6 6 5 5 4 4 4 4 4 3 4 4 4 4 4 5 5 5 5 5 6 7 7 8 9
15 16 16 16 17 17 17 17 16 16 15 13 12 12 11 10 9 8 6 5 4 4 4 3 3 2 2 2 2 3 3 3 4 4 4 4 5 5 6 7 7 7 7
15 16 17 17 16 17 17 17 16 16 15 14 13 13 12 11 9 8 7 6 5 4 3 2 2 1 1 1 1 1 1 1 2 2 3 3 4 5 6 6 6 7 6
15 15 16 16 17 17 17 16 16 16 16 16 15 14 13 12 10 9 7 6 5 4 3 2 1 0 1 1 1 2 2 2 2 2 2 3 3 4 5 5 6 6 5
16 15 16 17 17 16 16 16 16 16 16 16 16 15 14 12 11 9 8 7 5 4 3 2 2 1 1 1 1 2 2 2 2 4 3 4 4 4 5 5 5 6 6
15 15 16 16 16 16 17 17 17 17 17 17 16 15 14 13 11 10 9 7 6 5 4 3 2 1 1 1 1 1 2 2 2 3 3 4 4 5 5 5 5 6 6
14 15 15 16 16 16 17 18 18 17 17 16 15 14 14 14 13 12 10 8 7 5 4 3 2 2 1 1 1 1 1 2 3 3 3 4 5 5 6 6 6 7 7
14 14 14 15 16 16 17 17 18 18 16 16 15 15 14 15 14 13 12 9 7 6 5 4 3 2 1 1 1 2 2 3 3 4 4 4 5 5 5 6 6 7 7
14 14 14 14 14 15 16 17 17 16 17 17 16 16 14 14 14 14 13 11 9 7 6 5 4 3 2 1 0 1 2 2 3 4 4 5 5 5 6 6 6 7 7
12 12 13 14 13 14 15 16 17 17 17 17 17 16 15 15 15 15 13 11 10 8 7 6 5 4 3 2 1 1 2 3 3 4 4 5 6 6 6 6 7 7 7
Wind_Direction
198 180 172 166 156 153 152 147 138 139 142 139 136 131 125 122 118 113 107 104 103 102 101 97 97 96 96 95 93 90 90 91 94 90 90 89 91 91 87 83 83 83 85
225 204 200 191 178 175 167 167 160 155 152 144 139 134 128 125 119 114 111 107 103 100 97 95 93 92 90 93 95 95 94 95 97 92 89 88 91 90 89 86 82 85 87
233 219 214 206 199 192 187 184 180 176 167 156 145 139 133 129 122 117 114 108 102 97 95 93 91 91 91 94 98 100 97 96 99 93 90 91 90 91 94 88 80 84 88
237 224 222 218 213 204 202 202 195 191 183 170 160 152 144 135 129 123 117 109 102 97 93 91 90 89 92 98 103 104 101 98 103 101 97 96 91 92 96 86 80 85 90
240 228 223 223 217 208 209 209 203 202 198 188 178 169 161 149 140 131 122 113 103 95 89 86 85 85 90 95 103 103 104 104 106 111 111 110 103 100 98 84 82 88 90
247 236 223 224 218 211 213 214 212 211 209 203 194 186 179 170 160 146 130 121 103 89 80 78 81 86 87 87 98 107 106 107 116 126 123 119 123 117 110 89 81 86 87
253 243 231 228 225 221 220 220 218 217 216 213 207 202 195 187 182 170 148 137 120 82 56 51 64 81 89 85 105 127 117 121 141 147 139 126 129 138 135 106 84 86 94
249 246 238 232 230 229 226 225 224 223 223 221 215 212 209 203 199 191 183 173 155 79 32 18 23 40 27 276 241 193 195 190 170 202 214 218 200 212 199 169 124 100 126
248 247 240 235 235 233 231 230 230 229 228 225 221 218 216 212 211 211 213 222 232 302 333 335 327 319 311 288 269 253 272 294 304 262 256 249 252 253 235 225 217 217 228
254 246 241 236 235 236 234 231 231 232 230 227 225 224 223 222 224 226 231 249 267 285 304 306 288 282 279 273 271 271 273 265 267 244 262 263 261 252 260 254 246 254 261
257 251 245 240 239 236 235 233 232 234 233 230 228 228 229 229 233 236 244 257 272 282 289 284 275 272 273 267 275 273 270 273 264 264 273 266 260 261 276 276 257 258 261
258 252 248 244 241 238 237 235 235 235 234 232 232 232 235 236 240 244 251 262 269 275 280 273 263 266 273 273 268 264 252 258 276 276 274 270 267 267 278 288 276 270 268
263 256 247 243 241 239 238 236 237 236 234 234 236 237 238 240 244 250 256 264 267 269 271 268 259 263 267 265 263 255 260 281 288 280 277 273 275 272 273 282 282 277 273
264 258 250 244 242 239 237 238 239 237 237 237 238 239 240 242 243 248 256 256 257 262 263 265 268 270 269 267 265 260 259 270 273 277 276 273 280 282 280 283 284 280 276
265 259 249 244 244 240 236 238 239 238 240 239 239 239 236 239 241 245 246 249 254 258 255 261 270 269 272 274 271 269 263 262 272 265 270 274 287 295 291 289 291 284 280
267 258 249 245 243 241 236 237 235 236 239 240 238 235 234 235 239 244 245 251 258 263 265 272 274 273 273 275 274 277 275 273 274 267 270 277 288 298 302 302 299 292 287
270 260 250 246 245 244 237 236 236 237 235 239 235 233 231 232 236 237 244 251 258 264 269 276 275 284 279 280 280 282 285 278 268 269 273 281 289 297 304 309 309 303 296
270 258 249 246 245 241 237 239 238 235 233 237 235 232 231 232 236 235 239 249 254 261 269 275 281 295 287 293 296 297 292 283 279 273 276 282 292 301 308 312 313 316 311
270 258 250 248 246 241 239 239 235 231 230 232 231 233 234 234 233 234 237 239 244 253 263 273 283 337 340 14 10 4 3 340 315 301 287 288 304 312 319 321 320 321 323
269 260 251 245 243 242 239 238 234 230 230 230 231 232 234 234 233 231 233 232 238 243 245 251 247 327 28 52 58 56 47 38 30 11 348 336 330 329 335 341 342 342 338
268 261 251 246 243 242 240 240 236 232 231 230 231 233 235 232 229 227 229 228 230 227 224 214 205 181 96 71 72 67 61 56 42 30 14 3 354 356 356 353 357 357 354
268 262 253 245 240 239 240 239 236 233 230 231 232 234 232 228 226 222 222 222 222 218 218 212 200 170 118 95 82 75 64 50 34 19 13 7 4 359 357 3 6 3 0
270 263 254 243 239 237 237 238 236 233 231 230 233 233 230 226 223 223 220 221 217 211 210 207 189 174 135 111 85 59 41 18 16 15 12 11 12 10 9 8 3 3 3
271 265 254 244 238 236 236 235 233 234 232 229 229 229 227 225 223 222 219 219 214 203 201 205 197 186 159 135 72 43 22 13 14 9 7 9 6 4 4 0 358 1 2
266 259 250 241 237 234 233 231 230 231 230 229 226 225 225 221 219 220 217 215 210 201 200 206 201 195 187 182 173 354 2 6 5 6 5 1 357 356 356 355 356 358 358
261 252 245 241 236 235 233 230 228 228 228 226 223 223 222 218 217 214 212 210 207 203 205 210 207 207 212 224 256 301 332 342 341 344 347 350 347 345 345 347 349 350 349
Height
5878 5878 5879 5879 5880 5880 5880 5881 5881 5881 5881 5882 5882 5882 5882 5882 5882 5882 5882 5882 5882 5883 5883 5883 5883 5883 5884 5884 5884 5884 5885 5885 5885 5886 5886 5887 5887 5887 5888 5888 5888 5889 5889
5878 5878 5879 5879 5880 5881 5881 5882 5882 5882 5882 5883 5883 5883 5883 5883 5883 5883 5883 5883 5884 5884 5884 5884 5884 5884 5884 5885 5885 5885 5886 5886 5886 5887 5887 5888 5888 5888 5889 5889 5889 5890 5890
5878 5878 5879 5879 5880 5881 5882 5882 5883 5883 5883 5883 5884 5884 5884 5884 5884 5884 5885 5885 5885 5885 5885 5885 5885 5885 5886 5886 5886 5886 5887 5887 5887 5888 5888 5889 5889 5889 5890 5890 5890 5891 5891
5877 5878 5878 5879 5880 5881 5882 5882 5883 5884 5884 5884 5884 5885 5885 5885 5885 5885 5886 5886 5886 5886 5886 5886 5886 5886 5887 5887 5887 5887 5888 5888 5888 5888 5889 5889 5890 5890 5891 5891 5891 5892 5892
5877 5877 5878 5878 5879 5880 5881 5882 5883 5884 5884 5885 5885 5885 5885 5886 5886 5886 5887 5887 5887 5887 5887 5887 5887 5887 5887 5888 5888 5888 5889 5889 5889 5889 5890 5890 5891 5891 5891 5892 5892 5893 5893
5876 5876 5877 5878 5879 5880 5881 5882 5883 5884 5885 5885 5885 5886 5886 5886 5887 5887 5887 5887 5888 5888 5888 5888 5888 5888 5888 5888 5889 5889 5889 5890 5890 5890 5890 5891 5891 5892 5892 5892 5893 5893 5894
5875 5876 5877 5878 5879 5880 5881 5882 5883 5884 5884 5885 5886 5886 5886 5887 5887 5887 5887 5888 5888 5888 5888 5888 5888 5888 5889 5889 5889 5890 5890 5890 5890 5891 5891 5891 5892 5892 5893 5893 5893 5894 5894
5875 5875 5876 5877 5878 5879 5880 5881 5882 5883 5884 5885 5886 5886 5887 5887 5887 5887 5888 5888 5888 5888 5888 5889 5889 5889 5889 5889 5889 5890 5890 5891 5891 5891 5891 5892 5892 5892 5893 5893 5894 5895 5895
5873 5874 5875 5876 5877 5878 5879 5881 5882 5883 5884 5885 5885 5886 5887 5887 5887 5888 5888 5888 5888 5888 5888 5889 5889 5889 5889 5889 5890 5890 5890 5890 5891 5891 5892 5892 5892 5893 5893 5894 5895 5895 5895
5871 5872 5873 5874 5875 5877 5878 5879 5881 5882 5883 5884 5885 5886 5886 5887 5887 5888 5888 5888 5888 5888 5888 5888 5889 5889 5889 5889 5889 5889 5890 5890 5891 5890 5891 5892 5892 5893 5893 5894 5895 5895 5896
5870 5871 5871 5872 5873 5875 5877 5878 5879 5881 5882 5883 5884 5885 5886 5887 5887 5887 5887 5888 5888 5888 5888 5888 5888 5889 5889 5889 5889 5889 5890 5890 5891 5890 5891 5891 5892 5893 5893 5894 5895 5895 5896
5868 5869 5870 5871 5872 5874 5875 5876 5878 5879 5881 5882 5883 5884 5885 5886 5887 5887 5887 5887 5887 5888 5888 5888 5888 5888 5889 5889 5889 5888 5889 5889 5890 5890 5890 5891 5892 5892 5893 5894 5895 5895 5895
5865 5866 5867 5869 5870 5872 5873 5874 5876 5878 5879 5881 5882 5883 5885 5886 5886 5886 5886 5887 5887 5887 5887 5888 5888 5888 5888 5888 5888 5888 5888 5889 5889 5890 5889 5890 5891 5892 5893 5893 5894 5894 5895
5862 5863 5865 5866 5868 5869 5871 5872 5874 5876 5877 5879 5881 5882 5883 5884 5885 5886 5886 5886 5886 5887 5887 5887 5887 5888 5888 5888 5888 5888 5889 5889 5889 5889 5890 5890 5891 5891 5892 5892 5893 5893 5894
5860 5860 5862 5864 5865 5867 5868 5870 5872 5874 5876 5877 5879 5881 5882 5883 5884 5885 5885 5886 5886 5886 5886 5887 5887 5887 5887 5887 5887 5888 5888 5888 5888 5889 5889 5890 5890 5891 5891 5892 5892 5892 5892
5857 5857 5859 5861 5862 5864 5866 5868 5870 5871 5874 5876 5877 5879 5880 5882 5883 5884 5884 5885 5885 5885 5885 5886 5886 5886 5886 5887 5887 5887 5887 5888 5888 5888 5889 5889 5890 5890 5890 5890 5890 5890 5890
5854 5855 5856 5858 5860 5862 5864 5865 5867 5869 5871 5873 5875 5877 5879 5880 5882 5883 5883 5884 5885 5885 5885 5885 5886 5886 5886 5886 5886 5886 5886 5886 5886 5887 5888 5888 5888 5889 5889 5889 5889 5889 5889
5851 5852 5853 5855 5857 5859 5861 5863 5865 5867 5869 5872 5874 5876 5877 5879 5881 5882 5883 5883 5884 5884 5885 5885 5885 5885 5885 5885 5886 5886 5886 5886 5886 5887 5887 5887 5887 5888 5888 5888 5887 5887 5887
5849 5849 5850 5852 5854 5856 5858 5860 5863 5865 5868 5870 5872 5874 5876 5877 5879 5881 5882 5882 5883 5884 5884 5885 5885 5885 5885 5885 5885 5885 5885 5885 5886 5886 5886 5887 5887 5887 5887 5887 5886 5886 5886
5846 5847 5848 5850 5852 5853 5855 5858 5860 5863 5865 5868 5870 5873 5874 5876 5878 5879 5881 5882 5882 5883 5884 5884 5884 5884 5885 5885 5885 5885 5885 5885 5885 5885 5886 5886 5886 5886 5886 5886 5886 5885 5885
5843 5844 5845 5847 5849 5851 5853 5855 5858 5860 5863 5866 5868 5870 5872 5874 5876 5878 5879 5881 5882 5882 5883 5884 5884 5884 5885 5885 5885 5885 5886 5886 5885 5885 5886 5886 5886 5886 5886 5885 5885 5885 5885
5840 5841 5841 5843 5845 5848 5850 5853 5855 5858 5860 5863 5865 5868 5870 5872 5874 5876 5878 5880 5881 5882 5883 5883 5884 5884 5884 5885 5885 5885 5886 5886 5886 5886 5886 5886 5886 5885 5885 5885 5885 5885 5884
5837 5837 5838 5840 5842 5845 5847 5850 5852 5855 5857 5861 5863 5866 5868 5870 5873 5875 5877 5878 5880 5881 5882 5883 5883 5884 5884 5885 5885 5886 5886 5886 5886 5886 5886 5886 5886 5886 5886 5885 5885 5884 5884
5834 5834 5835 5837 5839 5841 5844 5846 5849 5852 5855 5858 5861 5863 5866 5868 5871 5873 5875 5877 5879 5880 5881 5882 5883 5884 5884 5885 5886 5886 5886 5886 5886 5886 5886 5886 5886 5886 5885 5885 5885 5884 5884
5830 5831 5832 5834 5836 5838 5841 5843 5846 5849 5852 5855 5858 5861 5863 5866 5868 5871 5873 5875 5877 5879 5880 5881 5883 5883 5884 5885 5885 5885 5885 5885 5886 5886 5886 5886 5886 5885 5885 5885 5885 5884 5883
5827 5828 5830 5832 5834 5835 5838 5840 5843 5846 5849 5852 5855 5858 5861 5864 5866 5869 5871 5874 5876 5878 5879 5881 5882 5883 5883 5884 5885 5885 5885 5885 5885 5885 5885 5885 5885 5885 5884 5884 5884 5883 5883